This is the latest recevied weather packets stored in our database for station/object K7NDG. If no packets are shown the sender has not sent any weather packets the latest 10 day(s).
| Time | Temp. | Humidity | Pressure | Rain* | Wind** | Luminosity | Snow |
|---|---|---|---|---|---|---|---|
| 1777350278 | 10.56° C | 83% | 1020.4 hPa | 0 mm | - | 0 W/m² | - |
| 1777349671 | 10.56° C | 82% | 1020.4 hPa | 0 mm | - | 0 W/m² | - |
| 1777349369 | 10.56° C | 82% | 1020 hPa | 0 mm | - | 0 W/m² | - |
| 1777349067 | 10.56° C | 81% | 1020.2 hPa | 0 mm | - | 0 W/m² | - |
| 1777348763 | 10.56° C | 81% | 1020.3 hPa | 0 mm | - | 0 W/m² | - |
| 1777348462 | 10.56° C | 81% | 1020.2 hPa | 0 mm | - | 0 W/m² | - |
| 1777348159 | 10.56° C | 81% | 1020 hPa | 0 mm | - | 0 W/m² | - |
| 1777347857 | 10.56° C | 81% | 1020 hPa | 0 mm | - | 0 W/m² | - |
| 1777347555 | 10.56° C | 81% | 1020.2 hPa | 0 mm | - | 0 W/m² | - |
| 1777347250 | 10.56° C | 81% | 1020 hPa | 0 mm | - | 0 W/m² | - |
| 1777346947 | 10.56° C | 81% | 1020 hPa | 0 mm | - | 0 W/m² | - |
| 1777346643 | 10.56° C | 81% | 1019.9 hPa | 0 mm | - | 0 W/m² | - |
| 1777346339 | 10.56° C | 81% | 1019.9 hPa | 0 mm | - | 0 W/m² | - |
| 1777346037 | 10.56° C | 81% | 1019.8 hPa | 0 mm | - | 0 W/m² | - |
| 1777345734 | 10.56° C | 81% | 1019.8 hPa | 0 mm | - | 0 W/m² | - |
| 1777345431 | 10.56° C | 81% | 1019.8 hPa | 0 mm | - | 1 W/m² | - |
| 1777345128 | 10.56° C | 80% | 1019.6 hPa | 0 mm | - | 1 W/m² | - |
| 1777344519 | 11.11° C | 80% | 1019.5 hPa | 0 mm | - | 2 W/m² | - |
| 1777343915 | 11.11° C | 79% | 1019.7 hPa | 0 mm | - | 4 W/m² | - |
| 1777343612 | 11.11° C | 79% | 1019.5 hPa | 0 mm | - | 5 W/m² | - |
| 1777343309 | 11.11° C | 79% | 1019.5 hPa | 0 mm | - | 10 W/m² | - |
| 1777342704 | 11.11° C | 79% | 1019.4 hPa | 0 mm | - | 20 W/m² | - |
| 1777342401 | 11.11° C | 79% | 1019.6 hPa | 0 mm | - | 23 W/m² | - |
| 1777342098 | 11.67° C | 78% | 1019.4 hPa | 0 mm | - | 27 W/m² | - |
| 1777341490 | 11.67° C | 78% | 1019.5 hPa | 0 mm | - | 31 W/m² | - |
* Rain latest hour (hover to see other rain measurements)
** Current wind speed in m/s (hover to see current wind gust speed)